Powrót do katalogu

THOR DELTA 1 DEB

LostPO
NORAD 33517·DEBRIS·🇺🇸 United States

Wystrzelony Apr 1, 1971 z Vandenberg Space Force Base

Loading…

Następne Przeloty (najbliższe 24 godziny)

TLE

NieaktualneSource: Space-Track

Epoka: Feb 11, 2015, 18:58 UTC

1 33517U 71024H   15042.79075555 +.00000795 +00000-0 +33782-2 0  9994
2 33517 088.2078 225.2865 0020132 185.9470 172.8642 12.81379670496346

Śledź THOR DELTA 1 DEB w czasie rzeczywistym z AllMySat

Download on the App Store